Voltar ao catálogo

FALCON 9 R/B

AtivoHEO
NORAD 54028·ROCKET BODY·🇺🇸 United States

Lançado Oct 8, 2022 de Cape Canaveral Space Force Station

Loading…

Próximas Passagens (próximas 24 horas)

TLE

AtualizadoSource: Space-Track

Época: Sep 14, 2026, 16:55 UTC

1 54028U 22128C   26257.70511958  .00011930  00000-0  85078-3 0  9997
2 54028  26.7073  94.7486 5717084 346.3081   3.0977  4.52180045 61508

Acompanhe FALCON 9 R/B em tempo real com AllMySat

Download on the App Store